TimeMST,TemperatureF,Dew PointF,Humidity,Sea Level PressureIn,VisibilityMPH,Wind Direction,Wind SpeedMPH,Gust SpeedMPH,PrecipitationIn,Events,Conditions,WindDirDegrees,DateUTC
12:55 AM,57.9,54.0,87,29.96,10.0,Calm,Calm,-,N/A,,Scattered Clouds,0,2013-01-27 07:55:00
1:55 AM,57.9,55.0,90,29.96,10.0,Calm,Calm,-,N/A,,Mostly Cloudy,0,2013-01-27 08:55:00
2:55 AM,57.9,55.0,90,29.95,8.0,Calm,Calm,-,N/A,,Mostly Cloudy,0,2013-01-27 09:55:00
3:55 AM,59.0,55.0,87,29.95,10.0,Calm,Calm,-,N/A,,Mostly Cloudy,0,2013-01-27 10:55:00
4:55 AM,57.9,55.0,90,29.94,8.0,Calm,Calm,-,N/A,,Mostly Cloudy,0,2013-01-27 11:55:00
5:55 AM,57.9,55.0,90,29.94,7.0,Calm,Calm,-,N/A,,Mostly Cloudy,0,2013-01-27 12:55:00
6:55 AM,57.9,55.0,90,29.95,7.0,Calm,Calm,-,N/A,,Mostly Cloudy,0,2013-01-27 13:55:00
7:55 AM,57.0,54.0,89,29.96,4.0,Calm,Calm,-,N/A,,Mostly Cloudy,0,2013-01-27 14:55:00
8:30 AM,57.2,53.6,88,29.96,4.0,SSE,3.5,-,N/A,,Mostly Cloudy,160,2013-01-27 15:30:00
8:47 AM,57.2,53.6,88,29.96,4.0,South,3.5,-,N/A,,Mostly Cloudy,170,2013-01-27 15:47:00
8:55 AM,57.9,55.0,90,29.96,3.0,Calm,Calm,-,N/A,,Mostly Cloudy,0,2013-01-27 15:55:00
9:55 AM,60.1,55.9,86,29.98,4.0,South,5.8,-,N/A,,Mostly Cloudy,190,2013-01-27 16:55:00
10:55 AM,64.0,55.9,75,29.99,7.0,SSE,11.5,-,N/A,,Mostly Cloudy,160,2013-01-27 17:55:00
11:55 AM,64.0,55.9,75,29.98,10.0,South,8.1,-,N/A,,Mostly Cloudy,180,2013-01-27 18:55:00
12:55 PM,64.9,55.0,70,29.94,10.0,South,8.1,-,N/A,,Mostly Cloudy,180,2013-01-27 19:55:00
1:55 PM,68.0,55.0,63,29.92,10.0,SSE,11.5,-,N/A,,Scattered Clouds,160,2013-01-27 20:55:00
2:00 PM,-9999,-9999,N/A,-9999,-9999.0,North,-9999.0,-,N/A,,Unknown,0,2013-01-27 21:00:00
2:55 PM,69.1,54.0,58,29.90,10.0,SSW,8.1,-,N/A,,Scattered Clouds,200,2013-01-27 21:55:00
3:55 PM,69.1,54.0,58,29.88,10.0,South,9.2,-,N/A,,Scattered Clouds,180,2013-01-27 22:55:00
4:55 PM,69.1,53.1,57,29.88,10.0,South,9.2,-,N/A,,Mostly Cloudy,190,2013-01-27 23:55:00
5:55 PM,66.9,54.0,63,29.88,10.0,SSW,5.8,-,N/A,,Mostly Cloudy,200,2013-01-28 00:55:00
6:55 PM,64.9,55.9,73,29.89,10.0,SSE,5.8,-,N/A,,Mostly Cloudy,150,2013-01-28 01:55:00
7:28 PM,62.6,57.2,82,29.89,6.0,West,11.5,19.6,0.01,Rain-Thunderstorm,Light Thunderstorms and Rain,260,2013-01-28 02:28:00
7:39 PM,57.2,51.8,82,29.90,1.8,Variable,5.8,-,0.24,Rain-Thunderstorm,Heavy Thunderstorms and Rain,0,2013-01-28 02:39:00
7:48 PM,57.2,51.8,82,29.91,3.0,NNE,5.8,-,0.28,Rain-Thunderstorm,Light Thunderstorms and Rain,30,2013-01-28 02:48:00
7:55 PM,57.9,52.0,81,29.91,10.0,NNE,3.5,-,0.28,Thunderstorm,Thunderstorm,20,2013-01-28 02:55:00
8:55 PM,57.9,44.1,60,29.93,10.0,NW,10.4,-,N/A,,Mostly Cloudy,310,2013-01-28 03:55:00
9:55 PM,57.0,43.0,59,29.94,10.0,NNW,6.9,-,N/A,,Mostly Cloudy,330,2013-01-28 04:55:00
10:55 PM,55.0,39.0,55,29.95,10.0,WNW,12.7,-,N/A,,Mostly Cloudy,300,2013-01-28 05:55:00
11:55 PM,54.0,36.0,51,29.97,10.0,WNW,10.4,18.4,N/A,,Mostly Cloudy,300,2013-01-28 06:55:00